| time (UTC) | temp C | wind direction | speed KPH | gust KPH | rain 1hr cm | rain 24hr cm | rain mn cm | humidity % | barometer mb |
| 20260502195503 | 25 | 350 | 11.3 | 25.7 | 0.00 | 0.58 | 0.00 | 38 | 1023.4 |
| 20260502195024 | 25 | 357 | 9.7 | 25.7 | 0.00 | 0.58 | 0.00 | 42 | 1023.4 |
| 20260502194504 | 25 | 15 | 8.0 | 22.5 | 0.00 | 0.61 | 0.00 | 39 | 1023.3 |
| 20260502194004 | 25 | 9 | 8.0 | 22.5 | 0.00 | 0.61 | 0.00 | 43 | 1023.4 |
| 20260502193503 | 25 | 8 | 8.0 | 25.7 | 0.00 | 0.61 | 0.00 | 43 | 1023.3 |
| 20260502193025 | 25 | 15 | 9.7 | 25.7 | 0.00 | 0.64 | 0.00 | 43 | 1023.3 |
| 20260502192503 | 25 | 5 | 11.3 | 27.4 | 0.00 | 0.66 | 0.00 | 44 | 1023.5 |
| 20260502192003 | 25 | 354 | 9.7 | 27.4 | 0.00 | 0.69 | 0.00 | 40 | 1023.6 |
| 20260502191504 | 25 | 335 | 8.0 | 19.3 | 0.00 | 0.71 | 0.00 | 44 | 1023.5 |
| 20260502191025 | 25 | 341 | 8.0 | 22.5 | 0.00 | 0.74 | 0.00 | 46 | 1023.5 |
| 20260502190503 | 24 | 13 | 9.7 | 22.5 | 0.00 | 0.76 | 0.00 | 46 | 1023.5 |
| 20260502190025 | 24 | 29 | 9.7 | 27.4 | 0.00 | 0.76 | 0.00 | 45 | 1023.5 |
| 20260502185503 | 24 | 40 | 9.7 | 27.4 | 0.00 | 0.76 | 0.00 | 43 | 1023.6 |
| 20260502185004 | 24 | 58 | 9.7 | 17.7 | 0.00 | 0.76 | 0.00 | 43 | 1023.7 |
| 20260502184504 | 24 | 33 | 9.7 | 25.7 | 0.00 | 0.76 | 0.00 | 45 | 1023.7 |
| 20260502184003 | 24 | 7 | 8.0 | 25.7 | 0.00 | 0.76 | 0.00 | 47 | 1023.7 |
| 20260502183504 | 23 | 21 | 6.4 | 19.3 | 0.00 | 0.76 | 0.00 | 47 | 1023.7 |
| 20260502183025 | 23 | 33 | 9.7 | 20.9 | 0.00 | 0.76 | 0.00 | 49 | 1023.8 |
| 20260502182524 | 23 | 17 | 9.7 | 20.9 | 0.00 | 0.76 | 0.00 | 49 | 1023.8 |
| 20260502182004 | 23 | 346 | 8.0 | 22.5 | 0.00 | 0.79 | 0.00 | 50 | 1024.0 |
| 20260502181503 | 23 | 350 | 9.7 | 22.5 | 0.00 | 0.84 | 0.00 | 49 | 1024.1 |
| 20260502181004 | 23 | 355 | 11.3 | 19.3 | 0.00 | 0.89 | 0.00 | 49 | 1024.4 |
| 20260502180503 | 23 | 342 | 11.3 | 22.5 | 0.00 | 0.94 | 0.00 | 53 | 1024.4 |
| 20260502170503 | 21 | 341 | 9.7 | 17.7 | 0.00 | 1.40 | 0.00 | 60 | 1025.3 |
| 20260502164003 | 20 | 6 | 8.0 | 20.9 | 0.00 | 1.40 | 0.00 | 63 | 1025.4 |
| 20260502163524 | 20 | 350 | 8.0 | 16.1 | 0.00 | 1.40 | 0.00 | 61 | 1025.3 |
| 20260502163003 | 20 | 353 | 8.0 | 16.1 | 0.00 | 1.40 | 0.00 | 62 | 1025.2 |
| 20260502162504 | 19 | 10 | 6.4 | 17.7 | 0.00 | 1.40 | 0.00 | 63 | 1025.2 |
| 20260502162003 | 19 | 360 | 8.0 | 17.7 | 0.00 | 1.40 | 0.00 | 65 | 1025.3 |
| 20260502161503 | 19 | 351 | 9.7 | 20.9 | 0.00 | 1.40 | 0.00 | 61 | 1025.4 |
| 20260502161024 | 18 | 349 | 9.7 | 20.9 | 0.00 | 1.40 | 0.00 | 63 | 1025.4 |
| 20260502160503 | 18 | 345 | 8.0 | 25.7 | 0.00 | 1.40 | 0.00 | 66 | 1025.3 |
| 20260502152003 | 17 | 341 | 9.7 | 20.9 | 0.00 | 1.52 | 0.00 | 69 | 1025.3 |
| 20260502151503 | 17 | 359 | 8.0 | 16.1 | 0.00 | 1.55 | 0.00 | 71 | 1025.4 |
| 20260502151024 | 17 | 353 | 9.7 | 19.3 | 0.00 | 1.55 | 0.00 | 70 | 1025.3 |
| 20260502150503 | 17 | 347 | 9.7 | 19.3 | 0.00 | 1.55 | 0.00 | 71 | 1025.3 |
| 20260502130504 | 10 | 337 | 6.4 | 12.9 | 0.00 | 1.91 | 0.00 | 95 | 1023.9 |
| 20260502123525 | 9 | 342 | 3.2 | 9.7 | 0.00 | 1.91 | 0.00 | 93 | 1023.7 |
| 20260502123004 | 9 | 342 | 3.2 | 8.0 | 0.00 | 1.93 | 0.00 | 93 | 1023.5 |
| 20260502122504 | 9 | 342 | 1.6 | 8.0 | 0.00 | 1.96 | 0.00 | 93 | 1023.4 |
| 20260502122004 | 9 | 342 | 1.6 | 6.4 | 0.00 | 2.03 | 0.00 | 93 | 1023.2 |
| 20260502121503 | 9 | 342 | 1.6 | 6.4 | 0.00 | 2.08 | 0.00 | 93 | 1023.2 |
| 20260502121004 | 9 | 342 | 1.6 | 6.4 | 0.00 | 2.13 | 0.00 | 93 | 1023.0 |
| 20260502120525 | 9 | 342 | 1.6 | 6.4 | 0.00 | 2.13 | 0.00 | 93 | 1022.9 |
| 20260502115504 | 9 | 342 | 1.6 | 6.4 | 0.00 | 2.18 | 0.00 | 93 | 1022.8 |
| 20260502115004 | 9 | 342 | 1.6 | 6.4 | 0.00 | 2.24 | 0.00 | 93 | 1022.8 |
| 20260502114504 | 9 | 342 | 1.6 | 6.4 | 0.00 | 2.29 | 0.00 | 93 | 1022.7 |
| 20260502114004 | 9 | 342 | 1.6 | 8.0 | 0.00 | 2.36 | 0.00 | 93 | 1022.7 |
| 20260502113504 | 9 | 342 | 1.6 | 8.0 | 0.00 | 2.41 | 0.00 | 93 | 1022.7 |
| 20260502113004 | 9 | 342 | 3.2 | 6.4 | 0.00 | 2.46 | 0.00 | 93 | 1022.7 |
| 20260502112504 | 9 | 342 | 1.6 | 8.0 | 0.00 | 2.49 | 0.00 | 93 | 1022.6 |
| 20260502112004 | 9 | 342 | 3.2 | 8.0 | 0.00 | 2.49 | 0.00 | 93 | 1022.6 |
| 20260502111504 | 10 | 342 | 3.2 | 8.0 | 0.00 | 2.51 | 0.00 | 93 | 1022.4 |
| 20260502111003 | 10 | 342 | 6.4 | 9.7 | 0.00 | 2.51 | 0.00 | 93 | 1022.3 |
| 20260502110504 | 10 | 342 | 6.4 | 9.7 | 0.00 | 2.54 | 0.00 | 93 | 1022.3 |
| 20260502110004 | 10 | 342 | 6.4 | 11.3 | 0.00 | 2.57 | 0.00 | 93 | 1022.3 |
| 20260502105503 | 10 | 342 | 3.2 | 11.3 | 0.00 | 2.62 | 0.00 | 93 | 1022.3 |
| 20260502105025 | 10 | 342 | 3.2 | 11.3 | 0.00 | 2.67 | 0.00 | 93 | 1022.3 |
| 20260502104504 | 10 | 342 | 3.2 | 8.0 | 0.00 | 2.74 | 0.00 | 93 | 1022.2 |
| 20260502104003 | 10 | 342 | 3.2 | 8.0 | 0.00 | 2.79 | 0.00 | 93 | 1021.9 |
| 20260502103503 | 10 | 342 | 3.2 | 6.4 | 0.00 | 2.84 | 0.00 | 93 | 1021.9 |
| 20260502103004 | 10 | 342 | 3.2 | 8.0 | 0.00 | 2.90 | 0.00 | 93 | 1021.9 |
| 20260502102524 | 10 | 342 | 3.2 | 8.0 | 0.00 | 2.92 | 0.00 | 93 | 1021.7 |
| 20260502102004 | 10 | 342 | 3.2 | 9.7 | 0.00 | 2.97 | 0.00 | 93 | 1021.7 |
| 20260502101504 | 10 | 342 | 6.4 | 9.7 | 0.00 | 3.00 | 0.00 | 93 | 1021.4 |
| 20260502101004 | 10 | 342 | 6.4 | 9.7 | 0.00 | 3.02 | 0.00 | 93 | 1021.4 |
| 20260502100525 | 10 | 342 | 6.4 | 9.7 | 0.00 | 3.07 | 0.00 | 93 | 1021.4 |
| 20260502091504 | 10 | 348 | 9.7 | 16.1 | 0.00 | 3.25 | 0.00 | 93 | 1020.5 |
| 20260502091003 | 10 | 345 | 8.0 | 16.1 | 0.00 | 3.28 | 0.00 | 93 | 1020.5 |
| 20260502090504 | 10 | 344 | 8.0 | 12.9 | 0.00 | 3.33 | 0.00 | 93 | 1020.5 |
| 20260502071503 | 11 | 336 | 8.0 | 16.1 | 0.00 | 4.06 | 0.00 | 93 | 1020.3 |
| 20260502071004 | 11 | 339 | 8.0 | 16.1 | 0.00 | 4.06 | 0.00 | 93 | 1020.2 |
| 20260502070525 | 11 | 343 | 8.0 | 16.1 | 0.00 | 4.06 | 0.00 | 93 | 1020.1 |
| 20260502070004 | 11 | 344 | 8.0 | 16.1 | 0.00 | 4.06 | 0.00 | 92 | 1020.0 |
| 20260502065524 | 11 | 344 | 6.4 | 16.1 | 0.00 | 4.06 | 0.00 | 92 | 1020.0 |
| 20260502065003 | 11 | 347 | 8.0 | 19.3 | 0.00 | 4.06 | 0.00 | 92 | 1020.0 |
| 20260502064525 | 11 | 346 | 8.0 | 19.3 | 0.00 | 4.06 | 0.00 | 92 | 1020.1 |
| 20260502064004 | 11 | 342 | 8.0 | 12.9 | 0.00 | 4.06 | 0.00 | 92 | 1020.1 |
| 20260502063503 | 11 | 343 | 8.0 | 12.9 | 0.00 | 4.06 | 0.00 | 92 | 1020.1 |
| 20260502063004 | 11 | 348 | 6.4 | 11.3 | 0.00 | 4.06 | 0.00 | 92 | 1020.2 |
| 20260502062504 | 11 | 341 | 8.0 | 11.3 | 0.00 | 4.09 | 0.00 | 92 | 1020.3 |
| 20260502062003 | 11 | 338 | 8.0 | 16.1 | 0.00 | 4.09 | 0.00 | 92 | 1020.4 |
| 20260502061503 | 11 | 347 | 6.4 | 16.1 | 0.00 | 4.09 | 0.00 | 91 | 1020.4 |
| 20260502061004 | 11 | 348 | 6.4 | 11.3 | 0.00 | 4.09 | 0.00 | 91 | 1020.3 |
| 20260502060503 | 11 | 348 | 3.2 | 9.7 | 0.00 | 4.09 | 0.00 | 91 | 1020.3 |
| 20260502060003 | 11 | 348 | 3.2 | 9.7 | 0.00 | 4.09 | 0.00 | 91 | 1020.4 |
| 20260502055503 | 11 | 348 | 3.2 | 8.0 | 0.00 | 4.09 | 0.00 | 91 | 1020.4 |
| 20260502055003 | 11 | 348 | 3.2 | 8.0 | 0.00 | 4.09 | 0.00 | 91 | 1020.4 |
| 20260502054503 | 11 | 348 | 3.2 | 9.7 | 0.00 | 4.09 | 0.00 | 91 | 1020.5 |
| 20260502054003 | 11 | 348 | 3.2 | 9.7 | 0.00 | 4.09 | 0.00 | 91 | 1020.4 |
| 20260502053503 | 11 | 348 | 6.4 | 11.3 | 0.00 | 4.09 | 0.00 | 91 | 1020.3 |
| 20260502053003 | 11 | 348 | 6.4 | 11.3 | 0.00 | 4.09 | 0.00 | 91 | 1020.4 |
| 20260502052524 | 11 | 348 | 8.0 | 11.3 | 0.00 | 4.09 | 0.00 | 91 | 1020.3 |
| 20260502052025 | 11 | 349 | 6.4 | 11.3 | 0.00 | 4.09 | 0.00 | 91 | 1020.1 |
| 20260502051503 | 11 | 349 | 6.4 | 11.3 | 0.00 | 4.09 | 0.00 | 91 | 1020.0 |
| 20260502051003 | 11 | 349 | 6.4 | 11.3 | 0.00 | 4.09 | 0.00 | 91 | 1020.1 |
| 20260502050503 | 11 | 349 | 6.4 | 9.7 | 0.00 | 4.09 | 0.00 | 91 | 1020.0 |
| 20260502050024 | 11 | 349 | 6.4 | 9.7 | 0.00 | 4.09 | 0.00 | 91 | 1019.9 |
| 20260502045503 | 12 | 350 | 6.4 | 12.9 | 0.00 | 4.09 | 4.09 | 91 | 1020.0 |
| 20260502045024 | 12 | 351 | 6.4 | 12.9 | 0.00 | 4.09 | 4.09 | 91 | 1020.0 |
| 20260502044504 | 12 | 353 | 6.4 | 11.3 | 0.00 | 4.09 | 4.09 | 91 | 1019.9 |
| 20260502044004 | 12 | 354 | 8.0 | 11.3 | 0.00 | 4.09 | 4.09 | 91 | 1020.1 |
| 20260502043503 | 12 | 346 | 8.0 | 17.7 | 0.00 | 4.09 | 4.09 | 91 | 1020.1 |
| 20260502043003 | 12 | 349 | 8.0 | 17.7 | 0.00 | 4.09 | 4.09 | 91 | 1020.2 |
| 20260502042503 | 12 | 352 | 8.0 | 16.1 | 0.00 | 4.09 | 4.09 | 91 | 1020.1 |
| 20260502042024 | 12 | 346 | 8.0 | 16.1 | 0.00 | 4.09 | 4.09 | 91 | 1020.2 |
| 20260502041503 | 12 | 345 | 8.0 | 16.1 | 0.00 | 4.09 | 4.09 | 91 | 1020.1 |
| 20260502041003 | 12 | 346 | 8.0 | 22.5 | 0.00 | 4.09 | 4.09 | 91 | 1020.1 |
| 20260502040503 | 12 | 350 | 8.0 | 22.5 | 0.00 | 4.09 | 4.09 | 91 | 1019.9 |
| 20260502040003 | 12 | 356 | 8.0 | 16.1 | 0.00 | 4.09 | 4.09 | 91 | 1019.8 |
| 20260502035524 | 12 | 360 | 8.0 | 17.7 | 0.00 | 4.09 | 4.09 | 91 | 1019.8 |
| 20260502035003 | 12 | 356 | 8.0 | 22.5 | 0.00 | 4.09 | 4.09 | 91 | 1019.8 |
| 20260502034503 | 12 | 353 | 9.7 | 22.5 | 0.00 | 4.09 | 4.09 | 91 | 1019.8 |
| 20260502034003 | 12 | 347 | 9.7 | 20.9 | 0.00 | 4.09 | 4.09 | 91 | 1019.9 |
| 20260502033503 | 12 | 346 | 11.3 | 25.7 | 0.00 | 4.09 | 4.09 | 91 | 1020.0 |
| 20260502033003 | 12 | 349 | 11.3 | 25.7 | 0.00 | 4.09 | 4.09 | 91 | 1020.0 |
| 20260502032503 | 12 | 351 | 9.7 | 22.5 | 0.00 | 4.09 | 4.09 | 92 | 1019.9 |
| 20260502032003 | 12 | 350 | 9.7 | 20.9 | 0.00 | 4.09 | 4.09 | 92 | 1019.8 |
| 20260502031503 | 12 | 345 | 9.7 | 20.9 | 0.00 | 4.09 | 4.09 | 92 | 1019.7 |
| 20260502031003 | 12 | 350 | 9.7 | 22.5 | 0.00 | 4.09 | 4.09 | 92 | 1019.6 |
| 20260502030503 | 12 | 349 | 9.7 | 22.5 | 0.00 | 4.09 | 4.09 | 92 | 1019.4 |
| 20260502030003 | 12 | 349 | 11.3 | 22.5 | 0.00 | 4.09 | 4.09 | 92 | 1019.4 |
| 20260502025503 | 12 | 354 | 11.3 | 25.7 | 0.00 | 4.09 | 4.09 | 92 | 1019.4 |
| 20260502025003 | 12 | 353 | 9.7 | 25.7 | 0.00 | 4.09 | 4.09 | 92 | 1019.3 |
| 20260502024503 | 12 | 351 | 9.7 | 22.5 | 0.00 | 4.09 | 4.09 | 93 | 1019.2 |
| 20260502024003 | 12 | 351 | 9.7 | 19.3 | 0.00 | 4.09 | 4.09 | 93 | 1019.2 |
| 20260502023503 | 12 | 353 | 9.7 | 17.7 | 0.00 | 4.09 | 4.09 | 93 | 1019.1 |
| 20260502023003 | 12 | 353 | 8.0 | 17.7 | 0.00 | 4.09 | 4.09 | 93 | 1019.0 |
| 20260502022525 | 12 | 345 | 8.0 | 19.3 | 0.00 | 4.09 | 4.09 | 93 | 1018.9 |
| 20260502022003 | 12 | 351 | 9.7 | 22.5 | 0.00 | 4.09 | 4.09 | 93 | 1018.8 |
| 20260502021503 | 12 | 355 | 9.7 | 22.5 | 0.00 | 4.09 | 4.09 | 93 | 1018.7 |
| 20260502021003 | 12 | 353 | 9.7 | 20.9 | 0.00 | 4.09 | 4.09 | 93 | 1018.6 |
| 20260502020503 | 12 | 356 | 11.3 | 25.7 | 0.00 | 4.09 | 4.09 | 93 | 1018.6 |
| 20260502020024 | 12 | 355 | 9.7 | 25.7 | 0.00 | 4.09 | 4.09 | 93 | 1018.5 |
| 20260502015503 | 12 | 351 | 9.7 | 22.5 | 0.00 | 4.09 | 4.09 | 94 | 1018.5 |
| 20260502015024 | 12 | 347 | 11.3 | 22.5 | 0.00 | 4.09 | 4.09 | 93 | 1018.5 |
| 20260502014503 | 12 | 349 | 11.3 | 25.7 | 0.00 | 4.09 | 4.09 | 94 | 1018.3 |
| 20260502014003 | 12 | 354 | 11.3 | 25.7 | 0.00 | 4.09 | 4.09 | 94 | 1018.1 |
| 20260502013503 | 12 | 353 | 11.3 | 22.5 | 0.00 | 4.09 | 4.09 | 94 | 1018.1 |
| 20260502013003 | 12 | 355 | 11.3 | 25.7 | 0.00 | 4.09 | 4.09 | 94 | 1018.1 |
| 20260502012503 | 12 | 355 | 9.7 | 25.7 | 0.00 | 4.09 | 4.09 | 94 | 1018.0 |
| 20260502012004 | 12 | 358 | 11.3 | 25.7 | 0.00 | 4.09 | 4.09 | 94 | 1018.0 |
| 20260502011525 | 12 | 2 | 11.3 | 30.6 | 0.00 | 4.09 | 4.09 | 94 | 1018.0 |
| 20260502011004 | 12 | 3 | 9.7 | 30.6 | 0.00 | 4.09 | 4.09 | 94 | 1017.9 |
| 20260502010504 | 12 | 2 | 11.3 | 27.4 | 0.00 | 4.09 | 4.09 | 94 | 1017.9 |
| 20260502010004 | 12 | 6 | 9.7 | 27.4 | 0.03 | 4.09 | 4.09 | 94 | 1017.8 |
| 20260502005504 | 12 | 5 | 12.9 | 32.2 | 0.03 | 4.09 | 4.09 | 94 | 1017.7 |
| 20260502005004 | 12 | 353 | 17.7 | 35.4 | 0.03 | 4.09 | 4.09 | 94 | 1017.5 |
| 20260502004504 | 12 | 350 | 17.7 | 35.4 | 0.03 | 4.09 | 4.09 | 94 | 1017.5 |
| 20260502004004 | 12 | 344 | 17.7 | 32.2 | 0.03 | 4.09 | 4.09 | 94 | 1017.5 |
| 20260502003525 | 13 | 339 | 16.1 | 32.2 | 0.03 | 4.09 | 4.09 | 94 | 1017.4 |
| 20260502003004 | 13 | 333 | 9.7 | 27.4 | 0.03 | 4.09 | 4.09 | 94 | 1017.2 |
| 20260502002504 | 13 | 348 | 11.3 | 22.5 | 0.03 | 4.09 | 4.09 | 94 | 1016.9 |
| 20260502002004 | 13 | 2 | 9.7 | 22.5 | 0.03 | 4.09 | 4.09 | 94 | 1016.4 |
| 20260502001525 | 13 | 356 | 9.7 | 20.9 | 0.03 | 4.09 | 4.09 | 94 | 1016.6 |
| 20260502001004 | 13 | 4 | 11.3 | 25.7 | 0.03 | 4.09 | 4.09 | 94 | 1016.4 |
| 20260502000504 | 13 | 5 | 12.9 | 29.0 | 0.03 | 4.09 | 4.09 | 94 | 1016.1 |
| 20260502000004 | 13 | 359 | 12.9 | 30.6 | 0.00 | 4.06 | 4.06 | 94 | 1016.3 |
| 20260501235504 | 13 | 5 | 9.7 | 30.6 | 0.00 | 4.06 | 4.06 | 94 | 1016.4 |
| 20260501235004 | 13 | 5 | 12.9 | 25.7 | 0.00 | 4.06 | 4.06 | 94 | 1016.0 |
| 20260501234504 | 13 | 1 | 16.1 | 32.2 | 0.00 | 4.06 | 4.06 | 94 | 1015.8 |
| 20260501234004 | 13 | 3 | 16.1 | 32.2 | 0.00 | 4.06 | 4.06 | 94 | 1015.7 |
| 20260501233504 | 13 | 358 | 17.7 | 37.0 | 0.00 | 4.06 | 4.06 | 94 | 1015.9 |
| 20260501233025 | 13 | 353 | 17.7 | 37.0 | 0.00 | 4.06 | 4.06 | 94 | 1016.1 |
| 20260501232525 | 13 | 354 | 17.7 | 32.2 | 0.03 | 4.06 | 4.06 | 94 | 1016.3 |
| 20260501232025 | 13 | 352 | 16.1 | 29.0 | 0.03 | 4.06 | 4.06 | 95 | 1016.1 |
| 20260501231504 | 13 | 349 | 12.9 | 32.2 | 0.05 | 4.06 | 4.06 | 95 | 1016.0 |
| 20260501231004 | 13 | 351 | 12.9 | 32.2 | 0.05 | 4.06 | 4.06 | 95 | 1016.0 |
| 20260501230525 | 13 | 350 | 11.3 | 29.0 | 0.08 | 4.06 | 4.06 | 95 | 1015.9 |
| 20260501230004 | 13 | 348 | 9.7 | 29.0 | 0.15 | 4.06 | 4.06 | 95 | 1015.7 |
| 20260501225503 | 13 | 341 | 9.7 | 19.3 | 0.18 | 4.06 | 4.06 | 95 | 1015.6 |
| 20260501225004 | 13 | 343 | 12.9 | 27.4 | 0.18 | 4.06 | 4.06 | 95 | 1015.5 |
| 20260501224504 | 13 | 346 | 16.1 | 29.0 | 0.20 | 4.06 | 4.06 | 94 | 1015.4 |
| 20260501224004 | 14 | 343 | 12.9 | 29.0 | 0.20 | 4.06 | 4.06 | 95 | 1015.5 |
| 20260501223504 | 14 | 341 | 11.3 | 30.6 | 0.20 | 4.06 | 4.06 | 95 | 1015.4 |
| 20260501223004 | 14 | 346 | 11.3 | 30.6 | 0.25 | 4.06 | 4.06 | 95 | 1015.4 |
| 20260501222504 | 14 | 351 | 11.3 | 27.4 | 0.28 | 4.04 | 4.04 | 95 | 1015.4 |
| 20260501222004 | 14 | 348 | 11.3 | 27.4 | 0.33 | 4.04 | 4.04 | 95 | 1015.5 |
| 20260501221504 | 14 | 352 | 16.1 | 29.0 | 0.36 | 4.01 | 4.01 | 95 | 1015.4 |
| 20260501221025 | 14 | 352 | 17.7 | 35.4 | 0.38 | 4.01 | 4.01 | 95 | 1015.2 |
| 20260501220525 | 14 | 347 | 16.1 | 35.4 | 0.38 | 3.99 | 3.99 | 95 | 1014.9 |
| 20260501220004 | 14 | 347 | 12.9 | 30.6 | 0.30 | 3.91 | 3.91 | 95 | 1014.8 |
| 20260501215504 | 14 | 346 | 12.9 | 30.6 | 0.30 | 3.89 | 3.89 | 95 | 1015.1 |
| 20260501215024 | 14 | 347 | 11.3 | 29.0 | 0.33 | 3.89 | 3.89 | 95 | 1015.0 |
| 20260501214504 | 14 | 345 | 11.3 | 25.7 | 0.30 | 3.86 | 3.86 | 95 | 1015.2 |
| 20260501214004 | 14 | 340 | 11.3 | 25.7 | 0.33 | 3.86 | 3.86 | 95 | 1015.5 |
| 20260501213504 | 14 | 338 | 12.9 | 29.0 | 0.36 | 3.86 | 3.86 | 95 | 1015.1 |
| 20260501213004 | 14 | 337 | 11.3 | 29.0 | 0.30 | 3.81 | 3.81 | 95 | 1014.8 |
| 20260501212525 | 14 | 341 | 12.9 | 27.4 | 0.25 | 3.76 | 3.76 | 95 | 1014.7 |
| 20260501212003 | 14 | 343 | 16.1 | 27.4 | 0.20 | 3.71 | 3.71 | 95 | 1014.5 |
| 20260501211525 | 14 | 342 | 16.1 | 32.2 | 0.15 | 3.66 | 3.66 | 95 | 1014.4 |
| 20260501211003 | 15 | 345 | 12.9 | 32.2 | 0.13 | 3.63 | 3.63 | 95 | 1014.3 |
| 20260501210524 | 15 | 346 | 12.9 | 27.4 | 0.10 | 3.61 | 3.61 | 95 | 1014.3 |
| 20260501210004 | 15 | 344 | 11.3 | 27.4 | 0.10 | 3.61 | 3.61 | 95 | 1014.4 |
| 20260501205504 | 15 | 343 | 12.9 | 29.0 | 0.08 | 3.58 | 3.58 | 95 | 1014.2 |
| 20260501205004 | 15 | 343 | 12.9 | 29.0 | 0.05 | 3.56 | 3.56 | 95 | 1013.9 |
| 20260501204504 | 15 | 344 | 16.1 | 27.4 | 0.08 | 3.56 | 3.56 | 95 | 1013.7 |
| 20260501204003 | 15 | 347 | 16.1 | 27.4 | 0.05 | 3.53 | 3.53 | 95 | 1013.3 |
| 20260501203503 | 15 | 354 | 12.9 | 27.4 | 0.03 | 3.51 | 3.51 | 95 | 1013.6 |
| 20260501203003 | 15 | 354 | 12.9 | 27.4 | 0.05 | 3.51 | 3.51 | 95 | 1013.1 |
| 20260501202503 | 15 | 351 | 12.9 | 32.2 | 0.08 | 3.51 | 3.51 | 95 | 1013.4 |
| 20260501202004 | 15 | 350 | 16.1 | 32.2 | 0.10 | 3.51 | 3.51 | 95 | 1013.3 |
| 20260501201525 | 15 | 355 | 12.9 | 30.6 | 0.13 | 3.51 | 3.51 | 95 | 1013.1 |
| 20260501201003 | 15 | 2 | 17.7 | 30.6 | 0.15 | 3.51 | 3.51 | 95 | 1013.1 |
| 20260501200504 | 15 | 5 | 16.1 | 29.0 | 0.18 | 3.51 | 3.51 | 95 | 1012.9 |
| 20260501200004 | 15 | 13 | 12.9 | 30.6 | 0.18 | 3.51 | 3.51 | 95 | 1012.3 |